Fergus Falls, MN

12:38 AM CST on November 12, 2019 (GMT -0600)
Fergus Falls Municipal-Mickelson

Weather History for KFFM - September, 2019

Change the Weather History Date:

Thursday, September 5, 2019

  Actual Average Record
Temperature  
Mean Temperature 69 °F -  
Max Temperature 78 °F 75 °F 94 °F (1978)
Min Temperature 60 °F 51 °F 33 °F (1965)
Cooling Degree Days 4    
Growing Degree Days 19 (Base 50)    
Moisture  
Dew Point 59 °F    
Average Humidity 77    
Maximum Humidity 88    
Minimum Humidity 65    
Precipitation  
Precipitation 0.00 in - - ()
Sea Level Pressure  
Sea Level Pressure 29.94 in    
Wind  
Wind Speed 12 mph ()    
Max Wind Speed 18 mph    
Max Gust Speed 30 mph    
Visibility 10.0 miles    
Events      
Averages and records for this station are not official NWS values.
T = Trace of Precipitation, MM = Missing Value Source: Averaged Metar Reports

Daily Weather History Graph

Daily Weather History Graph

Search for Another Location

Airport or City:

Astronomy

Sep. 05, 2019 Rise Set
Actual Time 6:49 AM CDT 7:56 PM CDT
Civil Twilight 6:19 AM CDT 8:26 PM CDT
Nautical Twilight 5:42 AM CDT 9:03 PM CDT
Astronomical Twilight 5:02 AM CDT 9:42 PM CDT
Moon 2:21 PM CDT (9/5) 11:47 PM CDT (9/5)
Length of Visible Light 14h 07m
Length of Day
13h 06m
Waxing Crescent, 45% of the Moon is Illuminated
Sep 5
Waxing Crescent
Sep 5
First Quarter
Sep 13
Full
Sep 21
Last Quarter
Sep 28
New

Hourly Weather History & Observations

Time (CDT) Temp. Dew Point Humidity Pressure Visibility Wind Dir Wind Speed Gust Speed Precip Events Conditions
12:15 AM 62.6 °F 53.6 °F 72% 30.02 in 10.0 mi SE 10.4 mph - N/A   Clear
12:35 AM 62.6 °F 53.6 °F 72% 30.00 in 10.0 mi SE 12.7 mph - N/A   Clear
12:57 AM 62.6 °F 55.4 °F 77% 30.01 in 10.0 mi SE 10.4 mph - N/A   Clear
1:16 AM 62.6 °F 55.4 °F 77% 30.01 in 10.0 mi SE 10.4 mph - N/A   Clear
1:35 AM 60.8 °F 55.4 °F 82% 30.00 in 10.0 mi SE 9.2 mph - N/A   Clear
1:36 AM 60.8 °F 55.4 °F 82% 30.00 in 10.0 mi SE 9.2 mph - N/A   Clear
1:55 AM 60.8 °F 55.4 °F 82% 29.99 in 10.0 mi SE 10.4 mph - N/A   Clear
1:56 AM 60.8 °F 55.4 °F 82% 29.99 in 10.0 mi SE 11.5 mph - N/A   Clear
2:19 AM 62.6 °F 55.4 °F 77% 30.00 in 10.0 mi SE 10.4 mph - N/A   Clear
2:36 AM 62.6 °F 55.4 °F 77% 29.99 in 10.0 mi SSE 10.4 mph - N/A   Clear
2:56 AM 60.8 °F 55.4 °F 82% 29.97 in 10.0 mi SE 10.4 mph - N/A   Clear
3:15 AM 60.8 °F 55.4 °F 82% 29.95 in 10.0 mi SSE 12.7 mph - N/A   Clear
3:16 AM 60.8 °F 55.4 °F 82% 29.95 in 10.0 mi SSE 12.7 mph - N/A   Clear
3:35 AM 62.6 °F 55.4 °F 77% 29.94 in 10.0 mi SSE 13.8 mph - N/A   Clear
3:58 AM 60.8 °F 55.4 °F 82% 29.92 in 10.0 mi SSE 16.1 mph - N/A   Clear
4:15 AM 60.8 °F 55.4 °F 82% 29.91 in 10.0 mi South 17.3 mph - N/A   Clear
4:35 AM 60.8 °F 55.4 °F 82% 29.90 in 10.0 mi South 16.1 mph - N/A   Clear
4:36 AM 60.8 °F 55.4 °F 82% 29.90 in 10.0 mi South 17.3 mph - N/A   Clear
4:55 AM 60.8 °F 55.4 °F 82% 29.90 in 10.0 mi South 13.8 mph - N/A   Clear
4:56 AM 60.8 °F 55.4 °F 82% 29.90 in 10.0 mi SSE 13.8 mph - N/A   Clear
5:18 AM 60.8 °F 55.4 °F 82% 29.89 in 10.0 mi South 13.8 mph - N/A   Clear
5:37 AM 60.8 °F 55.4 °F 82% 29.90 in 10.0 mi SSE 11.5 mph - N/A   Clear
5:56 AM 60.8 °F 55.4 °F 82% 29.89 in 10.0 mi South 12.7 mph - N/A   Clear
6:15 AM 60.8 °F 55.4 °F 82% 29.89 in 10.0 mi South 15.0 mph 18.4 mph N/A   Clear
6:16 AM 60.8 °F 55.4 °F 82% 29.89 in 10.0 mi South 13.8 mph 18.4 mph N/A   Clear
6:35 AM 60.8 °F 55.4 °F 82% 29.88 in 10.0 mi SSE 12.7 mph - N/A   Clear
6:40 AM 60.8 °F 55.4 °F 82% 29.87 in 10.0 mi SSE 13.8 mph - N/A   Clear
6:57 AM 60.8 °F 55.4 °F 82% 29.88 in 10.0 mi South 12.7 mph 17.3 mph N/A   Clear
7:15 AM 60.8 °F 55.4 °F 82% 29.90 in 10.0 mi South 9.2 mph - N/A   Clear
7:35 AM 60.8 °F 55.4 °F 82% 29.89 in 10.0 mi South 10.4 mph - N/A   Clear
7:36 AM 60.8 °F 55.4 °F 82% 29.89 in 10.0 mi South 10.4 mph - N/A   Clear
7:55 AM 60.8 °F 57.2 °F 88% 29.90 in 10.0 mi SSE 10.4 mph - N/A   Clear
8:19 AM 62.6 °F 57.2 °F 82% 29.90 in 10.0 mi SSE 15.0 mph 18.4 mph N/A   Clear
8:36 AM 62.6 °F 57.2 °F 82% 29.90 in 10.0 mi South 11.5 mph 17.3 mph N/A   Clear
8:56 AM 64.4 °F 57.2 °F 77% 29.90 in 10.0 mi South 10.4 mph - N/A   Scattered Clouds
9:15 AM 64.4 °F 59.0 °F 83% 29.90 in 10.0 mi South 11.5 mph - N/A   Scattered Clouds
9:16 AM 64.4 °F 59.0 °F 83% 29.90 in 10.0 mi South 11.5 mph - N/A   Scattered Clouds
9:35 AM 66.2 °F 60.8 °F 83% 29.89 in 10.0 mi South 12.7 mph - N/A   Clear
9:58 AM 66.2 °F 60.8 °F 83% 29.89 in 10.0 mi South 12.7 mph - N/A   Clear
10:15 AM 68.0 °F 60.8 °F 78% 29.89 in 10.0 mi South 11.5 mph - N/A   Clear
10:35 AM 69.8 °F 60.8 °F 73% 29.89 in 10.0 mi South 12.7 mph - N/A   Clear
10:36 AM 69.8 °F 60.8 °F 73% 29.89 in 10.0 mi South 11.5 mph - N/A   Clear
10:55 AM 69.8 °F 62.6 °F 78% 29.88 in 10.0 mi SSW 11.5 mph - N/A   Clear
11:18 AM 71.6 °F 62.6 °F 73% 29.87 in 10.0 mi SSW 10.4 mph 16.1 mph N/A   Clear
11:36 AM 73.4 °F 64.4 °F 73% 29.87 in 10.0 mi SW 11.5 mph 17.3 mph N/A   Clear
11:55 AM 73.4 °F 64.4 °F 73% 29.88 in 10.0 mi SW 10.4 mph 17.3 mph N/A   Scattered Clouds
12:15 PM 73.4 °F 64.4 °F 73% 29.88 in 10.0 mi WSW 12.7 mph - N/A   Scattered Clouds
12:16 PM 73.4 °F 64.4 °F 73% 29.88 in 10.0 mi WSW 11.5 mph - N/A   Scattered Clouds
12:35 PM 75.2 °F 64.4 °F 69% 29.88 in 10.0 mi WSW 6.9 mph - N/A   Scattered Clouds
12:57 PM 77.0 °F 66.2 °F 69% 29.87 in 10.0 mi WSW 12.7 mph - N/A   Scattered Clouds
1:15 PM 77.0 °F 66.2 °F 69% 29.87 in 10.0 mi WSW 9.2 mph - N/A   Scattered Clouds
1:35 PM 78.8 °F 66.2 °F 65% 29.88 in 10.0 mi West 15.0 mph 19.6 mph N/A   Scattered Clouds
1:36 PM 78.8 °F 66.2 °F 65% 29.88 in 10.0 mi West 15.0 mph 19.6 mph N/A   Scattered Clouds
1:55 PM 78.8 °F 66.2 °F 65% 29.88 in 10.0 mi West 13.8 mph - N/A   Scattered Clouds
1:56 PM 78.8 °F 66.2 °F 65% 29.88 in 10.0 mi West 13.8 mph - N/A   Scattered Clouds
2:18 PM 78.8 °F 66.2 °F 65% 29.88 in 10.0 mi West 15.0 mph 20.7 mph N/A   Scattered Clouds
2:55 PM 77.0 °F 64.4 °F 65% 29.89 in 10.0 mi NW 17.3 mph 24.2 mph N/A   Scattered Clouds
3:15 PM 75.2 °F 62.6 °F 65% 29.90 in 10.0 mi NW 17.3 mph - N/A   Scattered Clouds
3:16 PM 75.2 °F 62.6 °F 65% 29.90 in 10.0 mi NW 18.4 mph - N/A   Scattered Clouds
3:35 PM 73.4 °F 62.6 °F 69% 29.91 in 10.0 mi NNW 17.3 mph 25.3 mph N/A   Scattered Clouds
3:40 PM 75.2 °F 62.6 °F 65% 29.91 in 10.0 mi NW 17.3 mph 23.0 mph N/A   Scattered Clouds
3:57 PM 71.6 °F 62.6 °F 73% 29.92 in 10.0 mi NW 17.3 mph 23.0 mph N/A   Scattered Clouds
4:15 PM 73.4 °F 60.8 °F 65% 29.93 in 10.0 mi NW 18.4 mph 23.0 mph N/A   Mostly Cloudy
4:35 PM 71.6 °F 60.8 °F 69% 29.94 in 10.0 mi NNW 18.4 mph 23.0 mph N/A   Overcast
4:36 PM 71.6 °F 60.8 °F 69% 29.94 in 10.0 mi NNW 17.3 mph 23.0 mph N/A   Overcast
4:55 PM 69.8 °F 60.8 °F 73% 29.95 in 10.0 mi NNW 16.1 mph 23.0 mph N/A   Overcast
4:56 PM 69.8 °F 60.8 °F 73% 29.95 in 10.0 mi NNW 16.1 mph 23.0 mph N/A   Overcast
5:19 PM 69.8 °F 60.8 °F 73% 29.95 in 10.0 mi NNW 15.0 mph 20.7 mph N/A   Mostly Cloudy
5:37 PM 69.8 °F 60.8 °F 73% 29.96 in 10.0 mi NNW 15.0 mph 24.2 mph N/A   Overcast
5:56 PM 68.0 °F 60.8 °F 78% 29.97 in 10.0 mi NNW 15.0 mph 23.0 mph N/A   Overcast
6:15 PM 68.0 °F 60.8 °F 78% 29.97 in 10.0 mi NNW 15.0 mph 19.6 mph N/A   Overcast
6:16 PM 68.0 °F 60.8 °F 78% 29.97 in 10.0 mi NNW 13.8 mph 19.6 mph N/A   Overcast
6:35 PM 66.2 °F 60.8 °F 83% 29.98 in 10.0 mi NNW 10.4 mph 20.7 mph N/A   Overcast
6:39 PM 66.2 °F 60.8 °F 83% 29.98 in 10.0 mi NW 9.2 mph 20.7 mph N/A   Overcast
6:56 PM 66.2 °F 60.8 °F 83% 29.98 in 10.0 mi NW 10.4 mph - N/A   Overcast
7:16 PM 66.2 °F 60.8 °F 83% 29.99 in 10.0 mi NNW 10.4 mph - N/A   Overcast
7:35 PM 66.2 °F 60.8 °F 83% 30.00 in 10.0 mi NNW 11.5 mph 17.3 mph N/A   Overcast
7:36 PM 66.2 °F 60.8 °F 83% 30.00 in 10.0 mi North 11.5 mph 17.3 mph N/A   Overcast
7:55 PM 66.2 °F 59.0 °F 78% 30.00 in 10.0 mi North 13.8 mph 18.4 mph N/A   Overcast
8:17 PM 64.4 °F 59.0 °F 83% 30.01 in 10.0 mi North 12.7 mph 19.6 mph N/A   Overcast
8:35 PM 64.4 °F 59.0 °F 83% 30.02 in 10.0 mi NNW 11.5 mph - N/A   Overcast
8:55 PM 64.4 °F 57.2 °F 77% 30.03 in 10.0 mi North 11.5 mph 23.0 mph N/A   Overcast
9:15 PM 62.6 °F 57.2 °F 82% 30.04 in 10.0 mi North 15.0 mph 23.0 mph N/A   Overcast
9:16 PM 62.6 °F 57.2 °F 82% 30.04 in 10.0 mi North 15.0 mph 23.0 mph N/A   Overcast
9:39 PM 62.6 °F 57.2 °F 82% 30.05 in 10.0 mi North 9.2 mph 29.9 mph N/A   Overcast
9:56 PM 62.6 °F 57.2 °F 82% 30.05 in 10.0 mi North 10.4 mph 17.3 mph N/A   Overcast
10:16 PM 62.6 °F 55.4 °F 77% 30.06 in 10.0 mi North 9.2 mph - N/A   Overcast
10:35 PM 62.6 °F 55.4 °F 77% 30.06 in 10.0 mi North 11.5 mph 18.4 mph N/A   Mostly Cloudy
10:36 PM 62.6 °F 55.4 °F 77% 30.06 in 10.0 mi North 11.5 mph 18.4 mph N/A   Mostly Cloudy
10:55 PM 62.6 °F 55.4 °F 77% 30.06 in 10.0 mi North 10.4 mph - N/A   Scattered Clouds
10:59 PM 62.6 °F 55.4 °F 77% 30.06 in 10.0 mi North 9.2 mph - N/A   Clear
11:17 PM 60.8 °F 55.4 °F 82% 30.07 in 10.0 mi North 6.9 mph - N/A   Clear
11:36 PM 60.8 °F 55.4 °F 82% 30.07 in 10.0 mi North 5.8 mph - N/A   Clear
11:55 PM 60.8 °F 55.4 °F 82% 30.07 in 10.0 mi NNE 6.9 mph - N/A   Clear